<?xml version='1.0' encoding='UTF-8'?>
<gpx xmlns="http://www.topografix.com/GPX/1/1" creator="www.balnam.be" version="1.1" xmlns:xsi="http://www.w3.org/2001/XMLSchema-instance" xsi:schemaLocation="http://www.topografix.com/GPX/1/1 http://www.topografix.com/GPX/1/1/gpx.xsd">
<trk>
<name>llgrc1</name>
<cmt>r</cmt>
<desc>Rocourt Chemin n°1 Rue Verte Voie / Rue Verte-Voie</desc>
<link href="https://chemins.be/rocourt/chemin/1"/><trkseg>
<trkpt lat="50.684037" lon="5.557975"><time>2026-05-04T14:24:13Z</time></trkpt>
<trkpt lat="50.681843" lon="5.558018"><time>2026-05-04T14:34:13Z</time></trkpt>
<trkpt lat="50.679031" lon="5.559005"><time>2026-05-04T14:44:13Z</time></trkpt>
<trkpt lat="50.677785" lon="5.560138"><time>2026-05-04T14:54:13Z</time></trkpt>
<trkpt lat="50.674927" lon="5.562734"><time>2026-05-04T15:04:13Z</time></trkpt>
</trkseg></trk>
<trk>
<name>llgrc1</name>
<cmt>s</cmt>
<desc>Rocourt Chemin n°1 Rue Verte Voie / Rue Verte-Voie</desc>
<link href="https://chemins.be/rocourt/chemin/1"/><trkseg>
<trkpt lat="50.674927" lon="5.562734"><time>2026-05-04T15:04:13Z</time></trkpt>
<trkpt lat="50.674242" lon="5.563706"><time>2026-05-04T15:14:13Z</time></trkpt>
</trkseg></trk>
<trk>
<name>llgrc1</name>
<cmt>b</cmt>
<desc>Rocourt Chemin n°1 Rue Verte Voie / Rue Verte-Voie</desc>
<link href="https://chemins.be/rocourt/chemin/1"/><trkseg>
<trkpt lat="50.674242" lon="5.563706"><time>2026-05-04T15:14:13Z</time></trkpt>
<trkpt lat="50.674141" lon="5.563814"><time>2026-05-04T15:24:13Z</time></trkpt>
<trkpt lat="50.672734" lon="5.565305"><time>2026-05-04T15:34:13Z</time></trkpt>
<trkpt lat="50.672118" lon="5.565997"><time>2026-05-04T15:44:13Z</time></trkpt>
<trkpt lat="50.671832" lon="5.566282"><time>2026-05-04T15:54:13Z</time></trkpt>
</trkseg></trk>
<trk>
<name>llgrc1</name>
<cmt>v</cmt>
<desc>Rocourt Chemin n°1 Rue Verte Voie / Rue Verte-Voie</desc>
<link href="https://chemins.be/rocourt/chemin/1"/><trkseg>
<trkpt lat="50.671832" lon="5.566282"><time>2026-05-04T15:54:13Z</time></trkpt>
<trkpt lat="50.671201" lon="5.566913"><time>2026-05-04T16:04:13Z</time></trkpt>
</trkseg></trk>
<trk>
<name>llgrc1</name>
<cmt>s</cmt>
<desc>Rocourt Chemin n°1 Rue Verte Voie / Rue Verte-Voie</desc>
<link href="https://chemins.be/rocourt/chemin/1"/><trkseg>
<trkpt lat="50.671201" lon="5.566913"><time>2026-05-04T16:04:13Z</time></trkpt>
<trkpt lat="50.670456" lon="5.567657"><time>2026-05-04T16:14:13Z</time></trkpt>
<trkpt lat="50.669958" lon="5.568018"><time>2026-05-04T16:24:13Z</time></trkpt>
</trkseg>
</trk>
<trk>
<name>llgrc13</name>
<cmt>b</cmt>
<desc>Rocourt Chemin n°13 Rue Verte-Voie / Chemin n° 13</desc>
<link href="https://chemins.be/rocourt/chemin/13"/><trkseg>
<trkpt lat="50.670699" lon="5.565503"><time>2026-05-04T14:24:13Z</time></trkpt>
<trkpt lat="50.671233" lon="5.565888"><time>2026-05-04T14:34:13Z</time></trkpt>
<trkpt lat="50.671660" lon="5.565927"><time>2026-05-04T14:44:13Z</time></trkpt>
<trkpt lat="50.672130" lon="5.566010"><time>2026-05-04T14:54:13Z</time></trkpt>
<trkpt lat="50.672429" lon="5.565675"><time>2026-05-04T15:04:13Z</time></trkpt>
<trkpt lat="50.672891" lon="5.565668"><time>2026-05-04T15:14:13Z</time></trkpt>
</trkseg></trk>
<trk>
<name>llgrc13</name>
<cmt>d</cmt>
<desc>Rocourt Chemin n°13 Rue Verte-Voie / Chemin n° 13</desc>
<link href="https://chemins.be/rocourt/chemin/13"/><trkseg>
<trkpt lat="50.672891" lon="5.565668"><time>2026-05-04T15:14:13Z</time></trkpt>
<trkpt lat="50.673250" lon="5.565748"><time>2026-05-04T15:24:13Z</time></trkpt>
</trkseg></trk>
<trk>
<name>llgrc13</name>
<cmt>s</cmt>
<desc>Rocourt Chemin n°13 Rue Verte-Voie / Chemin n° 13</desc>
<link href="https://chemins.be/rocourt/chemin/13"/><trkseg>
<trkpt lat="50.673250" lon="5.565748"><time>2026-05-04T15:24:13Z</time></trkpt>
<trkpt lat="50.674066" lon="5.565981"><time>2026-05-04T15:34:13Z</time></trkpt>
</trkseg>
</trk>
<trk>
<name>llgrc14</name>
<cmt>v</cmt>
<desc>Rocourt Sentier n°14 </desc>
<link href="https://chemins.be/rocourt/sentier/14"/><trkseg>
<trkpt lat="50.683781" lon="5.553020"><time>2026-05-04T14:24:13Z</time></trkpt>
<trkpt lat="50.683750" lon="5.553703"><time>2026-05-04T14:34:13Z</time></trkpt>
</trkseg></trk>
<trk>
<name>llgrc14</name>
<cmt>d</cmt>
<desc>Rocourt Sentier n°14 </desc>
<link href="https://chemins.be/rocourt/sentier/14"/><trkseg>
<trkpt lat="50.683750" lon="5.553703"><time>2026-05-04T14:34:13Z</time></trkpt>
<trkpt lat="50.683577" lon="5.555359"><time>2026-05-04T14:44:13Z</time></trkpt>
<trkpt lat="50.683335" lon="5.556342"><time>2026-05-04T14:54:13Z</time></trkpt>
<trkpt lat="50.683411" lon="5.556943"><time>2026-05-04T15:04:13Z</time></trkpt>
</trkseg></trk>
<trk>
<name>llgrc14</name>
<cmt>v</cmt>
<desc>Rocourt Sentier n°14 </desc>
<link href="https://chemins.be/rocourt/sentier/14"/><trkseg>
<trkpt lat="50.683411" lon="5.556943"><time>2026-05-04T15:04:13Z</time></trkpt>
<trkpt lat="50.683234" lon="5.557943"><time>2026-05-04T15:14:13Z</time></trkpt>
</trkseg>
</trk>
<trk>
<name>llgrc15</name>
<cmt>d</cmt>
<desc>Rocourt Sentier n°15 Sentier n° 15</desc>
<link href="https://chemins.be/rocourt/sentier/15"/><trkseg>
<trkpt lat="50.682618" lon="5.558017"><time>2026-05-04T14:24:13Z</time></trkpt>
<trkpt lat="50.682512" lon="5.559497"><time>2026-05-04T14:34:13Z</time></trkpt>
<trkpt lat="50.682414" lon="5.560734"><time>2026-05-04T14:44:13Z</time></trkpt>
<trkpt lat="50.682276" lon="5.561125"><time>2026-05-04T14:54:13Z</time></trkpt>
<trkpt lat="50.682215" lon="5.561150"><time>2026-05-04T15:04:13Z</time></trkpt>
<trkpt lat="50.681062" lon="5.563520"><time>2026-05-04T15:14:13Z</time></trkpt>
<trkpt lat="50.680529" lon="5.564112"><time>2026-05-04T15:24:13Z</time></trkpt>
<trkpt lat="50.679976" lon="5.564828"><time>2026-05-04T15:34:13Z</time></trkpt>
</trkseg></trk>
<trk>
<name>llgrc15</name>
<cmt>b</cmt>
<desc>Rocourt Sentier n°15 Sentier n° 15</desc>
<link href="https://chemins.be/rocourt/sentier/15"/><trkseg>
<trkpt lat="50.679976" lon="5.564828"><time>2026-05-04T15:34:13Z</time></trkpt>
<trkpt lat="50.679334" lon="5.565650"><time>2026-05-04T15:44:13Z</time></trkpt>
</trkseg></trk>
<trk>
<name>llgrc15</name>
<cmt>r</cmt>
<desc>Rocourt Sentier n°15 Sentier n° 15</desc>
<link href="https://chemins.be/rocourt/sentier/15"/><trkseg>
<trkpt lat="50.679334" lon="5.565650"><time>2026-05-04T15:44:13Z</time></trkpt>
<trkpt lat="50.679199" lon="5.565850"><time>2026-05-04T15:54:13Z</time></trkpt>
</trkseg>
</trk>
<trk>
<name>llgrc16</name>
<cmt>d</cmt>
<desc>Rocourt Sentier n°16 </desc>
<link href="https://chemins.be/rocourt/sentier/16"/><trkseg>
<trkpt lat="50.674462" lon="5.563352"><time>2026-05-04T14:24:13Z</time></trkpt>
<trkpt lat="50.677558" lon="5.562505"><time>2026-05-04T14:34:13Z</time></trkpt>
</trkseg></trk>
<trk>
<name>llgrc16</name>
<cmt>v</cmt>
<desc>Rocourt Sentier n°16 </desc>
<link href="https://chemins.be/rocourt/sentier/16"/><trkseg>
<trkpt lat="50.677558" lon="5.562505"><time>2026-05-04T14:34:13Z</time></trkpt>
<trkpt lat="50.677694" lon="5.562341"><time>2026-05-04T14:44:13Z</time></trkpt>
<trkpt lat="50.677749" lon="5.562531"><time>2026-05-04T14:54:13Z</time></trkpt>
</trkseg></trk>
<trk>
<name>llgrc16</name>
<cmt>d</cmt>
<desc>Rocourt Sentier n°16 </desc>
<link href="https://chemins.be/rocourt/sentier/16"/><trkseg>
<trkpt lat="50.677749" lon="5.562531"><time>2026-05-04T14:54:13Z</time></trkpt>
<trkpt lat="50.678416" lon="5.562442"><time>2026-05-04T15:04:13Z</time></trkpt>
<trkpt lat="50.678627" lon="5.562495"><time>2026-05-04T15:14:13Z</time></trkpt>
</trkseg></trk>
<trk>
<name>llgrc16</name>
<cmt>q</cmt>
<desc>Rocourt Sentier n°16 </desc>
<link href="https://chemins.be/rocourt/sentier/16"/><trkseg>
<trkpt lat="50.678627" lon="5.562495"><time>2026-05-04T15:14:13Z</time></trkpt>
<trkpt lat="50.679344" lon="5.562378"><time>2026-05-04T15:24:13Z</time></trkpt>
<trkpt lat="50.679776" lon="5.562348"><time>2026-05-04T15:34:13Z</time></trkpt>
<trkpt lat="50.680632" lon="5.561438"><time>2026-05-04T15:44:13Z</time></trkpt>
<trkpt lat="50.680858" lon="5.561198"><time>2026-05-04T15:54:13Z</time></trkpt>
<trkpt lat="50.681266" lon="5.561361"><time>2026-05-04T16:04:13Z</time></trkpt>
</trkseg></trk>
<trk>
<name>llgrc16</name>
<cmt>s</cmt>
<desc>Rocourt Sentier n°16 </desc>
<link href="https://chemins.be/rocourt/sentier/16"/><trkseg>
<trkpt lat="50.681266" lon="5.561361"><time>2026-05-04T16:04:13Z</time></trkpt>
<trkpt lat="50.682229" lon="5.561146"><time>2026-05-04T16:14:13Z</time></trkpt>
</trkseg>
</trk>
<trk>
<name>llgrc17</name>
<cmt>q</cmt>
<desc>Rocourt Sentier n°17 </desc>
<link href="https://chemins.be/rocourt/sentier/17"/><trkseg>
<trkpt lat="50.677162" lon="5.546536"><time>2026-05-04T14:24:13Z</time></trkpt>
<trkpt lat="50.676981" lon="5.547166"><time>2026-05-04T14:34:13Z</time></trkpt>
<trkpt lat="50.678056" lon="5.548403"><time>2026-05-04T14:44:13Z</time></trkpt>
</trkseg></trk>
<trk>
<name>llgrc17</name>
<cmt>s</cmt>
<desc>Rocourt Sentier n°17 </desc>
<link href="https://chemins.be/rocourt/sentier/17"/><trkseg>
<trkpt lat="50.678056" lon="5.548403"><time>2026-05-04T14:44:13Z</time></trkpt>
<trkpt lat="50.679338" lon="5.549877"><time>2026-05-04T14:54:13Z</time></trkpt>
</trkseg>
</trk>
<trk>
<name>llgrc18</name>
<cmt>r</cmt>
<desc>Rocourt Sentier n°18 </desc>
<link href="https://chemins.be/rocourt/sentier/18"/><trkseg>
<trkpt lat="50.680874" lon="5.542817"><time>2026-05-04T14:24:13Z</time></trkpt>
<trkpt lat="50.680489" lon="5.544004"><time>2026-05-04T14:34:13Z</time></trkpt>
</trkseg></trk>
<trk>
<name>llgrc18</name>
<cmt>q</cmt>
<desc>Rocourt Sentier n°18 </desc>
<link href="https://chemins.be/rocourt/sentier/18"/><trkseg>
<trkpt lat="50.680489" lon="5.544004"><time>2026-05-04T14:34:13Z</time></trkpt>
<trkpt lat="50.680069" lon="5.544827"><time>2026-05-04T14:44:13Z</time></trkpt>
</trkseg>
</trk>
<trk>
<name>llgrc19</name>
<cmt>q</cmt>
<desc>Rocourt Sentier n°19 </desc>
<link href="https://chemins.be/rocourt/sentier/19"/><trkseg>
<trkpt lat="50.682358" lon="5.541660"><time>2026-05-04T14:24:13Z</time></trkpt>
<trkpt lat="50.682712" lon="5.540308"><time>2026-05-04T14:34:13Z</time></trkpt>
<trkpt lat="50.683097" lon="5.539509"><time>2026-05-04T14:44:13Z</time></trkpt>
</trkseg>
</trk>
<trk>
<name>llgrc20</name>
<cmt>r</cmt>
<desc>Rocourt Sentier n°20 Sentier du Moulin</desc>
<link href="https://chemins.be/rocourt/sentier/20"/><trkseg>
<trkpt lat="50.684562" lon="5.549874"><time>2026-05-04T14:24:13Z</time></trkpt>
<trkpt lat="50.685170" lon="5.547701"><time>2026-05-04T14:34:13Z</time></trkpt>
</trkseg></trk>
<trk>
<name>llgrc20</name>
<cmt>q</cmt>
<desc>Rocourt Sentier n°20 Sentier du Moulin</desc>
<link href="https://chemins.be/rocourt/sentier/20"/><trkseg>
<trkpt lat="50.685170" lon="5.547701"><time>2026-05-04T14:34:13Z</time></trkpt>
<trkpt lat="50.685938" lon="5.545765"><time>2026-05-04T14:44:13Z</time></trkpt>
<trkpt lat="50.686190" lon="5.545384"><time>2026-05-04T14:54:13Z</time></trkpt>
</trkseg>
</trk>
<trk>
<name>llgrc20bis</name>
<cmt>q</cmt>
<desc>Rocourt Sentier n°20bis </desc>
<link href="https://chemins.be/rocourt/sentier/20bis"/><trkseg>
<trkpt lat="50.684891" lon="5.548727"><time>2026-05-04T14:24:13Z</time></trkpt>
<trkpt lat="50.683055" lon="5.547068"><time>2026-05-04T14:34:13Z</time></trkpt>
<trkpt lat="50.681374" lon="5.546538"><time>2026-05-04T14:44:13Z</time></trkpt>
<trkpt lat="50.680986" lon="5.546748"><time>2026-05-04T14:54:13Z</time></trkpt>
<trkpt lat="50.680196" lon="5.547175"><time>2026-05-04T15:04:13Z</time></trkpt>
</trkseg>
</trk>
<trk>
<name>llgrc21</name>
<cmt>s</cmt>
<desc>Rocourt Sentier n°21 </desc>
<link href="https://chemins.be/rocourt/sentier/21"/><trkseg>
<trkpt lat="50.664008" lon="5.556002"><time>2026-05-04T14:24:13Z</time></trkpt>
<trkpt lat="50.665319" lon="5.553504"><time>2026-05-04T14:34:13Z</time></trkpt>
<trkpt lat="50.666641" lon="5.552569"><time>2026-05-04T14:44:13Z</time></trkpt>
</trkseg></trk>
<trk>
<name>llgrc21</name>
<cmt>v</cmt>
<desc>Rocourt Sentier n°21 </desc>
<link href="https://chemins.be/rocourt/sentier/21"/><trkseg>
<trkpt lat="50.666641" lon="5.552569"><time>2026-05-04T14:44:13Z</time></trkpt>
<trkpt lat="50.666799" lon="5.552466"><time>2026-05-04T14:54:13Z</time></trkpt>
<trkpt lat="50.667163" lon="5.551770"><time>2026-05-04T15:04:13Z</time></trkpt>
<trkpt lat="50.667388" lon="5.551581"><time>2026-05-04T15:14:13Z</time></trkpt>
</trkseg></trk>
<trk>
<name>llgrc21</name>
<cmt>s</cmt>
<desc>Rocourt Sentier n°21 </desc>
<link href="https://chemins.be/rocourt/sentier/21"/><trkseg>
<trkpt lat="50.667388" lon="5.551581"><time>2026-05-04T15:14:13Z</time></trkpt>
<trkpt lat="50.669301" lon="5.550637"><time>2026-05-04T15:24:13Z</time></trkpt>
</trkseg>
</trk>
<trk>
<name>llgrc22</name>
<cmt>q</cmt>
<desc>Rocourt Sentier n°22 </desc>
<link href="https://chemins.be/rocourt/sentier/22"/><trkseg>
<trkpt lat="50.669112" lon="5.565970"><time>2026-05-04T14:24:13Z</time></trkpt>
<trkpt lat="50.667865" lon="5.565035"><time>2026-05-04T14:34:13Z</time></trkpt>
</trkseg></trk>
<trk>
<name>llgrc22</name>
<cmt>s</cmt>
<desc>Rocourt Sentier n°22 </desc>
<link href="https://chemins.be/rocourt/sentier/22"/><trkseg>
<trkpt lat="50.667865" lon="5.565035"><time>2026-05-04T14:34:13Z</time></trkpt>
<trkpt lat="50.666995" lon="5.564382"><time>2026-05-04T14:44:13Z</time></trkpt>
<trkpt lat="50.665580" lon="5.563617"><time>2026-05-04T14:54:13Z</time></trkpt>
<trkpt lat="50.664302" lon="5.563059"><time>2026-05-04T15:04:13Z</time></trkpt>
</trkseg>
</trk>
<trk>
<name>llgrc23</name>
<cmt>q</cmt>
<desc>Rocourt Sentier n°23 </desc>
<link href="https://chemins.be/rocourt/sentier/23"/><trkseg>
<trkpt lat="50.665304" lon="5.560155"><time>2026-05-04T14:24:13Z</time></trkpt>
<trkpt lat="50.666190" lon="5.560263"><time>2026-05-04T14:34:13Z</time></trkpt>
<trkpt lat="50.667652" lon="5.560441"><time>2026-05-04T14:44:13Z</time></trkpt>
</trkseg>
</trk>
<trk>
<name>llgrc24</name>
<cmt>s</cmt>
<desc>Rocourt Sentier n°24 Avenue des Pâquerettes</desc>
<link href="https://chemins.be/rocourt/sentier/24"/><trkseg>
<trkpt lat="50.676159" lon="5.546143"><time>2026-05-04T14:24:13Z</time></trkpt>
<trkpt lat="50.676959" lon="5.549336"><time>2026-05-04T14:34:13Z</time></trkpt>
<trkpt lat="50.677078" lon="5.551336"><time>2026-05-04T14:44:13Z</time></trkpt>
<trkpt lat="50.677022" lon="5.553633"><time>2026-05-04T14:54:13Z</time></trkpt>
</trkseg></trk>
<trk>
<name>llgrc24</name>
<cmt>r</cmt>
<desc>Rocourt Sentier n°24 Avenue des Pâquerettes</desc>
<link href="https://chemins.be/rocourt/sentier/24"/><trkseg>
<trkpt lat="50.677022" lon="5.553633"><time>2026-05-04T14:54:13Z</time></trkpt>
<trkpt lat="50.678025" lon="5.554204"><time>2026-05-04T15:04:13Z</time></trkpt>
</trkseg>
</trk>
<trk>
<name>llgrc25</name>
<cmt>v</cmt>
<desc>Rocourt Sentier n°25 </desc>
<link href="https://chemins.be/rocourt/sentier/25"/><trkseg>
<trkpt lat="50.677361" lon="5.556563"><time>2026-05-04T14:24:13Z</time></trkpt>
<trkpt lat="50.676943" lon="5.557109"><time>2026-05-04T14:34:13Z</time></trkpt>
</trkseg></trk>
<trk>
<name>llgrc25</name>
<cmt>d</cmt>
<desc>Rocourt Sentier n°25 </desc>
<link href="https://chemins.be/rocourt/sentier/25"/><trkseg>
<trkpt lat="50.676943" lon="5.557109"><time>2026-05-04T14:34:13Z</time></trkpt>
<trkpt lat="50.676605" lon="5.557420"><time>2026-05-04T14:44:13Z</time></trkpt>
<trkpt lat="50.675566" lon="5.558202"><time>2026-05-04T14:54:13Z</time></trkpt>
<trkpt lat="50.675263" lon="5.558720"><time>2026-05-04T15:04:13Z</time></trkpt>
</trkseg></trk>
<trk>
<name>llgrc25</name>
<cmt>s</cmt>
<desc>Rocourt Sentier n°25 </desc>
<link href="https://chemins.be/rocourt/sentier/25"/><trkseg>
<trkpt lat="50.675263" lon="5.558720"><time>2026-05-04T15:04:13Z</time></trkpt>
<trkpt lat="50.674772" lon="5.559558"><time>2026-05-04T15:14:13Z</time></trkpt>
</trkseg>
</trk>
<trk>
<name>llgrc26</name>
<cmt>v</cmt>
<desc>Rocourt Sentier n°26 Sentier du Pairoux</desc>
<link href="https://chemins.be/rocourt/sentier/26"/><trkseg>
<trkpt lat="50.683521" lon="5.552787"><time>2026-05-04T14:24:13Z</time></trkpt>
<trkpt lat="50.683888" lon="5.551476"><time>2026-05-04T14:34:13Z</time></trkpt>
<trkpt lat="50.684371" lon="5.549751"><time>2026-05-04T14:44:13Z</time></trkpt>
</trkseg>
</trk>
<trk>
<name>llgrc27</name>
<cmt>v</cmt>
<desc>Rocourt Sentier n°27 </desc>
<link href="https://chemins.be/rocourt/sentier/27"/><trkseg>
<trkpt lat="50.677696" lon="5.562335"><time>2026-05-04T14:24:13Z</time></trkpt>
<trkpt lat="50.677567" lon="5.562504"><time>2026-05-04T14:34:13Z</time></trkpt>
</trkseg></trk>
<trk>
<name>llgrc27</name>
<cmt>d</cmt>
<desc>Rocourt Sentier n°27 </desc>
<link href="https://chemins.be/rocourt/sentier/27"/><trkseg>
<trkpt lat="50.677567" lon="5.562504"><time>2026-05-04T14:34:13Z</time></trkpt>
<trkpt lat="50.675633" lon="5.565810"><time>2026-05-04T14:44:13Z</time></trkpt>
</trkseg></trk>
<trk>
<name>llgrc27</name>
<cmt>s</cmt>
<desc>Rocourt Sentier n°27 </desc>
<link href="https://chemins.be/rocourt/sentier/27"/><trkseg>
<trkpt lat="50.675633" lon="5.565810"><time>2026-05-04T14:44:13Z</time></trkpt>
<trkpt lat="50.675540" lon="5.565971"><time>2026-05-04T14:54:13Z</time></trkpt>
</trkseg>
</trk>
<trk>
<name>llgrc3</name>
<cmt>v</cmt>
<desc>Rocourt Chemin n°3 Rue du Cheval Blanc / Basses di Rôcou</desc>
<link href="https://chemins.be/rocourt/chemin/3"/><trkseg>
<trkpt lat="50.682075" lon="5.564783"><time>2026-05-04T14:24:13Z</time></trkpt>
<trkpt lat="50.679408" lon="5.565872"><time>2026-05-04T14:34:13Z</time></trkpt>
<trkpt lat="50.678585" lon="5.565890"><time>2026-05-04T14:44:13Z</time></trkpt>
<trkpt lat="50.678219" lon="5.565905"><time>2026-05-04T14:54:13Z</time></trkpt>
<trkpt lat="50.677293" lon="5.565799"><time>2026-05-04T15:04:13Z</time></trkpt>
<trkpt lat="50.676800" lon="5.565998"><time>2026-05-04T15:14:13Z</time></trkpt>
</trkseg></trk>
<trk>
<name>llgrc3</name>
<cmt>d</cmt>
<desc>Rocourt Chemin n°3 Rue du Cheval Blanc / Basses di Rôcou</desc>
<link href="https://chemins.be/rocourt/chemin/3"/><trkseg>
<trkpt lat="50.676800" lon="5.565998"><time>2026-05-04T15:14:13Z</time></trkpt>
<trkpt lat="50.676509" lon="5.566069"><time>2026-05-04T15:24:13Z</time></trkpt>
<trkpt lat="50.675549" lon="5.565978"><time>2026-05-04T15:34:13Z</time></trkpt>
</trkseg></trk>
<trk>
<name>llgrc3</name>
<cmt>s</cmt>
<desc>Rocourt Chemin n°3 Rue du Cheval Blanc / Basses di Rôcou</desc>
<link href="https://chemins.be/rocourt/chemin/3"/><trkseg>
<trkpt lat="50.675549" lon="5.565978"><time>2026-05-04T15:34:13Z</time></trkpt>
<trkpt lat="50.674080" lon="5.565933"><time>2026-05-04T15:44:13Z</time></trkpt>
<trkpt lat="50.673166" lon="5.567101"><time>2026-05-04T15:54:13Z</time></trkpt>
<trkpt lat="50.670425" lon="5.567667"><time>2026-05-04T16:04:13Z</time></trkpt>
</trkseg>
</trk>
<trk>
<name>llgrc5</name>
<cmt>v</cmt>
<desc>Rocourt Chemin n°5 Chemin du Bois</desc>
<link href="https://chemins.be/rocourt/chemin/5"/><trkseg>
<trkpt lat="50.671042" lon="5.556359"><time>2026-05-04T14:24:13Z</time></trkpt>
<trkpt lat="50.671326" lon="5.556121"><time>2026-05-04T14:34:13Z</time></trkpt>
<trkpt lat="50.671676" lon="5.555831"><time>2026-05-04T14:44:13Z</time></trkpt>
<trkpt lat="50.672236" lon="5.555745"><time>2026-05-04T14:54:13Z</time></trkpt>
<trkpt lat="50.672758" lon="5.555758"><time>2026-05-04T15:04:13Z</time></trkpt>
<trkpt lat="50.673302" lon="5.555372"><time>2026-05-04T15:14:13Z</time></trkpt>
</trkseg></trk>
<trk>
<name>llgrc5</name>
<cmt>s</cmt>
<desc>Rocourt Chemin n°5 Chemin du Bois</desc>
<link href="https://chemins.be/rocourt/chemin/5"/><trkseg>
<trkpt lat="50.673302" lon="5.555372"><time>2026-05-04T15:14:13Z</time></trkpt>
<trkpt lat="50.673842" lon="5.555014"><time>2026-05-04T15:24:13Z</time></trkpt>
<trkpt lat="50.674295" lon="5.554713"><time>2026-05-04T15:34:13Z</time></trkpt>
<trkpt lat="50.676261" lon="5.554316"><time>2026-05-04T15:44:13Z</time></trkpt>
</trkseg></trk>
<trk>
<name>llgrc5</name>
<cmt>r</cmt>
<desc>Rocourt Chemin n°5 Chemin du Bois</desc>
<link href="https://chemins.be/rocourt/chemin/5"/><trkseg>
<trkpt lat="50.676261" lon="5.554316"><time>2026-05-04T15:44:13Z</time></trkpt>
<trkpt lat="50.676732" lon="5.553924"><time>2026-05-04T15:54:13Z</time></trkpt>
</trkseg>
</trk>
<trk>
<name>llgrc7</name>
<cmt>r</cmt>
<desc>Rocourt Chemin n°7 Rue d'Alleur / Chemin Dupireux / Rue Lohest</desc>
<link href="https://chemins.be/rocourt/chemin/7"/><trkseg>
<trkpt lat="50.676689" lon="5.537174"><time>2026-05-04T14:24:13Z</time></trkpt>
<trkpt lat="50.677411" lon="5.538311"><time>2026-05-04T14:34:13Z</time></trkpt>
<trkpt lat="50.678267" lon="5.540028"><time>2026-05-04T14:44:13Z</time></trkpt>
<trkpt lat="50.679647" lon="5.543568"><time>2026-05-04T14:54:13Z</time></trkpt>
<trkpt lat="50.680096" lon="5.545285"><time>2026-05-04T15:04:13Z</time></trkpt>
</trkseg></trk>
<trk>
<name>llgrc7</name>
<cmt>v</cmt>
<desc>Rocourt Chemin n°7 Rue d'Alleur / Chemin Dupireux / Rue Lohest</desc>
<link href="https://chemins.be/rocourt/chemin/7"/><trkseg>
<trkpt lat="50.680096" lon="5.545285"><time>2026-05-04T15:04:13Z</time></trkpt>
<trkpt lat="50.680172" lon="5.545632"><time>2026-05-04T15:14:13Z</time></trkpt>
<trkpt lat="50.680122" lon="5.545837"><time>2026-05-04T15:24:13Z</time></trkpt>
<trkpt lat="50.680054" lon="5.545864"><time>2026-05-04T15:34:13Z</time></trkpt>
</trkseg></trk>
<trk>
<name>llgrc7</name>
<cmt>r</cmt>
<desc>Rocourt Chemin n°7 Rue d'Alleur / Chemin Dupireux / Rue Lohest</desc>
<link href="https://chemins.be/rocourt/chemin/7"/><trkseg>
<trkpt lat="50.680054" lon="5.545864"><time>2026-05-04T15:34:13Z</time></trkpt>
<trkpt lat="50.680155" lon="5.546135"><time>2026-05-04T15:44:13Z</time></trkpt>
<trkpt lat="50.680222" lon="5.547103"><time>2026-05-04T15:54:13Z</time></trkpt>
<trkpt lat="50.680018" lon="5.547940"><time>2026-05-04T16:04:13Z</time></trkpt>
</trkseg>
</trk>
<trk>
<name>llgrci1</name>
<cmt>v</cmt>
<desc>Rocourt Sentier n°i1 </desc>
<link href="https://chemins.be/rocourt/sentier/i1"/><trkseg>
<trkpt lat="50.663971" lon="5.556011"><time>2026-05-04T14:24:13Z</time></trkpt>
<trkpt lat="50.664150" lon="5.556181"><time>2026-05-04T14:34:13Z</time></trkpt>
<trkpt lat="50.664249" lon="5.556169"><time>2026-05-04T14:44:13Z</time></trkpt>
<trkpt lat="50.664678" lon="5.556434"><time>2026-05-04T14:54:13Z</time></trkpt>
</trkseg>
</trk>
<trk>
<name>llgrci10</name>
<cmt>v</cmt>
<desc>Rocourt Sentier n°i10 </desc>
<link href="https://chemins.be/rocourt/sentier/i10"/><trkseg>
<trkpt lat="50.667924" lon="5.552110"><time>2026-05-04T14:24:13Z</time></trkpt>
<trkpt lat="50.668148" lon="5.552315"><time>2026-05-04T14:34:13Z</time></trkpt>
<trkpt lat="50.668036" lon="5.552882"><time>2026-05-04T14:44:13Z</time></trkpt>
</trkseg>
</trk>
<trk>
<name>llgrci11</name>
<cmt>v</cmt>
<desc>Rocourt Sentier n°i11 Clos de l'Aérodrome / Passage des Glaneuses</desc>
<link href="https://chemins.be/rocourt/sentier/i11"/><trkseg>
<trkpt lat="50.667169" lon="5.556883"><time>2026-05-04T14:24:13Z</time></trkpt>
<trkpt lat="50.666581" lon="5.556415"><time>2026-05-04T14:34:13Z</time></trkpt>
<trkpt lat="50.665860" lon="5.555934"><time>2026-05-04T14:44:13Z</time></trkpt>
</trkseg>
</trk>
<trk>
<name>llgrci2</name>
<cmt>v</cmt>
<desc>Rocourt Chemin n°i2 </desc>
<link href="https://chemins.be/rocourt/chemin/i2"/><trkseg>
<trkpt lat="50.674335" lon="5.559726"><time>2026-05-04T14:24:13Z</time></trkpt>
<trkpt lat="50.674696" lon="5.562824"><time>2026-05-04T14:34:13Z</time></trkpt>
<trkpt lat="50.674815" lon="5.563605"><time>2026-05-04T14:44:13Z</time></trkpt>
<trkpt lat="50.674876" lon="5.564125"><time>2026-05-04T14:54:13Z</time></trkpt>
<trkpt lat="50.674931" lon="5.564370"><time>2026-05-04T15:04:13Z</time></trkpt>
<trkpt lat="50.675001" lon="5.564588"><time>2026-05-04T15:14:13Z</time></trkpt>
<trkpt lat="50.675724" lon="5.566004"><time>2026-05-04T15:24:13Z</time></trkpt>
</trkseg>
</trk>
<trk>
<name>llgrci3</name>
<cmt>v</cmt>
<desc>Rocourt Chemin n°i3 </desc>
<link href="https://chemins.be/rocourt/chemin/i3"/><trkseg>
<trkpt lat="50.674078" lon="5.562986"><time>2026-05-04T14:24:13Z</time></trkpt>
<trkpt lat="50.674136" lon="5.563803"><time>2026-05-04T14:34:13Z</time></trkpt>
</trkseg>
</trk>
<trk>
<name>llgrci4</name>
<cmt>q</cmt>
<desc>Rocourt Sentier n°i4 </desc>
<link href="https://chemins.be/rocourt/sentier/i4"/><trkseg>
<trkpt lat="50.676932" lon="5.557109"><time>2026-05-04T14:24:13Z</time></trkpt>
<trkpt lat="50.676935" lon="5.558070"><time>2026-05-04T14:34:13Z</time></trkpt>
<trkpt lat="50.676938" lon="5.558918"><time>2026-05-04T14:44:13Z</time></trkpt>
</trkseg>
</trk>
<trk>
<name>llgrci5</name>
<cmt>v</cmt>
<desc>Rocourt Sentier n°i5 Clos Hesbignon</desc>
<link href="https://chemins.be/rocourt/sentier/i5"/><trkseg>
<trkpt lat="50.666396" lon="5.563109"><time>2026-05-04T14:24:13Z</time></trkpt>
<trkpt lat="50.665832" lon="5.563828"><time>2026-05-04T14:34:13Z</time></trkpt>
</trkseg>
</trk>
<trk>
<name>llgrci6</name>
<cmt>v</cmt>
<desc>Rocourt Chemin n°i6 </desc>
<link href="https://chemins.be/rocourt/chemin/i6"/><trkseg>
<trkpt lat="50.681968" lon="5.552690"><time>2026-05-04T14:24:13Z</time></trkpt>
<trkpt lat="50.682255" lon="5.552768"><time>2026-05-04T14:34:13Z</time></trkpt>
<trkpt lat="50.682285" lon="5.552681"><time>2026-05-04T14:44:13Z</time></trkpt>
</trkseg>
</trk>
<trk>
<name>llgrci7</name>
<cmt>v</cmt>
<desc>Rocourt Sentier n°i7 </desc>
<link href="https://chemins.be/rocourt/sentier/i7"/><trkseg>
<trkpt lat="50.674689" lon="5.562843"><time>2026-05-04T14:24:13Z</time></trkpt>
<trkpt lat="50.674086" lon="5.562979"><time>2026-05-04T14:34:13Z</time></trkpt>
</trkseg>
</trk>
<trk>
<name>llgrci8</name>
<cmt>v</cmt>
<desc>Rocourt Sentier n°i8 Passage des Glaneuses</desc>
<link href="https://chemins.be/rocourt/sentier/i8"/><trkseg>
<trkpt lat="50.666247" lon="5.555228"><time>2026-05-04T14:24:13Z</time></trkpt>
<trkpt lat="50.665842" lon="5.555948"><time>2026-05-04T14:34:13Z</time></trkpt>
<trkpt lat="50.665624" lon="5.556244"><time>2026-05-04T14:44:13Z</time></trkpt>
</trkseg>
</trk>
<trk>
<name>llgrci9</name>
<cmt>v</cmt>
<desc>Rocourt Chemin n°i9 </desc>
<link href="https://chemins.be/rocourt/chemin/i9"/><trkseg>
<trkpt lat="50.668459" lon="5.553264"><time>2026-05-04T14:24:13Z</time></trkpt>
<trkpt lat="50.667991" lon="5.552868"><time>2026-05-04T14:34:13Z</time></trkpt>
<trkpt lat="50.667858" lon="5.553297"><time>2026-05-04T14:44:13Z</time></trkpt>
<trkpt lat="50.667036" lon="5.552715"><time>2026-05-04T14:54:13Z</time></trkpt>
</trkseg>
</trk>
<trk>
<name>llgrcL31</name>
<cmt>v</cmt>
<desc>Rocourt Chemin n°L31 RAVeL Ligne 31</desc>
<link href="https://chemins.be/rocourt/chemin/L31"/><trkseg>
<trkpt lat="50.671930" lon="5.535394"><time>2026-05-04T14:24:13Z</time></trkpt>
<trkpt lat="50.672648" lon="5.536445"><time>2026-05-04T14:34:13Z</time></trkpt>
<trkpt lat="50.675795" lon="5.540881"><time>2026-05-04T14:44:13Z</time></trkpt>
<trkpt lat="50.676036" lon="5.541071"><time>2026-05-04T14:54:13Z</time></trkpt>
<trkpt lat="50.678603" lon="5.544234"><time>2026-05-04T15:04:13Z</time></trkpt>
<trkpt lat="50.679823" lon="5.545410"><time>2026-05-04T15:14:13Z</time></trkpt>
<trkpt lat="50.680139" lon="5.545637"><time>2026-05-04T15:24:13Z</time></trkpt>
<trkpt lat="50.680456" lon="5.545865"><time>2026-05-04T15:34:13Z</time></trkpt>
<trkpt lat="50.680850" lon="5.546059"><time>2026-05-04T15:44:13Z</time></trkpt>
<trkpt lat="50.685591" lon="5.547884"><time>2026-05-04T15:54:13Z</time></trkpt>
</trkseg>
</trk>
<trk>
<name>llgrcLi8</name>
<cmt>v</cmt>
<desc>Rocourt Chemin n°Li8 </desc>
<link href="https://chemins.be/rocourt/chemin/Li8"/><trkseg>
<trkpt lat="50.685139" lon="5.547802"><time>2026-05-04T14:24:13Z</time></trkpt>
<trkpt lat="50.683222" lon="5.547066"><time>2026-05-04T14:34:13Z</time></trkpt>
<trkpt lat="50.682899" lon="5.547145"><time>2026-05-04T14:44:13Z</time></trkpt>
<trkpt lat="50.682317" lon="5.547308"><time>2026-05-04T14:54:13Z</time></trkpt>
<trkpt lat="50.681937" lon="5.547569"><time>2026-05-04T15:04:13Z</time></trkpt>
<trkpt lat="50.681426" lon="5.548444"><time>2026-05-04T15:14:13Z</time></trkpt>
<trkpt lat="50.680945" lon="5.549933"><time>2026-05-04T15:24:13Z</time></trkpt>
<trkpt lat="50.680529" lon="5.550590"><time>2026-05-04T15:34:13Z</time></trkpt>
<trkpt lat="50.679645" lon="5.551137"><time>2026-05-04T15:44:13Z</time></trkpt>
<trkpt lat="50.678881" lon="5.551190"><time>2026-05-04T15:54:13Z</time></trkpt>
</trkseg></trk>
<trk>
<name>llgrcLi8</name>
<cmt>s</cmt>
<desc>Rocourt Chemin n°Li8 </desc>
<link href="https://chemins.be/rocourt/chemin/Li8"/><trkseg>
<trkpt lat="50.678881" lon="5.551190"><time>2026-05-04T15:54:13Z</time></trkpt>
<trkpt lat="50.676300" lon="5.549453"><time>2026-05-04T16:04:13Z</time></trkpt>
<trkpt lat="50.675559" lon="5.549753"><time>2026-05-04T16:14:13Z</time></trkpt>
<trkpt lat="50.674355" lon="5.551588"><time>2026-05-04T16:24:13Z</time></trkpt>
</trkseg>
</trk>
</gpx>